Location: Waverly
(39.3325°N, 76.6061°W)
Time: 23:18:46
(UTC+00:00)

BlueWalker 3 - Pass Details

Date: 09 December 2025
Orbit: 451 x 463 km, 53.2° (Epoch: 15 January)

Event Time Altitude Azimuth Distance (km) Brightness Sun altitude
Rises 22:13:05 0° 314° (NW) 2,491 5.8 -6.0°
Reaches altitude 10° 22:15:16 10° 319° (NW) 1,614 4.7 -6.4°
Maximum altitude 22:18:49 52° 37° (NE) 584 1.9 -7.0°
Drops below altitude 10° 22:22:22 10° 115° (ESE) 1,607 4.1 -7.6°
Sets 22:24:33 0° 120° (ESE) 2,479 5.1 -8.0°
